Weather History for Canon City Fremont County, CO

Change the Weather History Date:

Saturday, February 8, 2014

  Actual Average (KPUB) Record (KPUB)
Temperature  
Mean Temperature 38 °F 32 °F  
Max Temperature 50 °F 49 °F 76 °F (1954)
Min Temperature 26 °F 16 °F -24 °F (1933)
Degree Days  
Heating Degree Days 27 33  
Month to date heating degree days 267  
Since 1 July heating degree days 3699  
Cooling Degree Days 0 0  
Month to date cooling degree days 0  
Year to date cooling degree days 0  
Moisture  
Dew Point 23 °F    
Average Humidity 50    
Maximum Humidity 60    
Minimum Humidity 37    
Precipitation  
Precipitation 0.00 in 0.01 in 0.25 in (1927)
Month to date precipitation 0.07  
Year to date precipitation 0.42  
Snow  
Snow 0.00 in 0.10 in 4.00 in (1956)
Month to date snowfall 1.2  
Since 1 July snowfall 19.2  
Snow Depth -    
Sea Level Pressure  
Sea Level Pressure 29.88 in    
Wind  
Wind Speed 13 mph (WNW)    
Max Wind Speed 21 mph    
Max Gust Speed 30 mph    
Visibility 10 miles    
Events      
T = Trace of Precipitation, MM = Missing Value Source: NWS Daily Summary

Daily Weather History Graph

Daily Weather History Graph

Search for Another Location

Airport:

Trip Planner

Search our weather history database for the weather conditions in past years. The results will help you decide how hot, cold, wet, or windy it might be!

Date:

Astronomy

Feb. 08, 2014 Rise Set
Actual Time 6:58 AM MST 5:30 PM MST
Civil Twilight 6:31 AM MST 5:58 PM MST
Nautical Twilight 6:00 AM MST 6:29 PM MST
Astronomical Twilight 5:29 AM MST 7:00 PM MST
Moon 12:28 PM MST (2/8) 2:12 AM MST (2/8)
Length of Visible Light 11h 26m
Length of Day
10h 32m
Waxing Gibbous, 69% of the Moon is Illuminated
Feb 8
Waxing Gibbous
Feb 14
Full
Feb 22
Last Quarter
Mar 1
New
Mar 8
First Quarter

Hourly Weather History & Observations

Time (MST) Temp. Windchill Dew Point Humidity Pressure Visibility Wind Dir Wind Speed Gust Speed Precip Events Conditions
12:15 AM 30.2 °F 21.3 °F 17.6 °F 60% 29.85 in 10.0 mi West 10.4 mph - N/A   Clear
12:35 AM 30.2 °F 21.3 °F 17.6 °F 60% 29.86 in 10.0 mi West 10.4 mph - N/A   Clear
12:55 AM 30.2 °F 20.2 °F 17.6 °F 60% 29.86 in 10.0 mi West 12.7 mph - N/A   Clear
1:15 AM 30.2 °F 19.8 °F 17.6 °F 60% 29.87 in 10.0 mi West 13.8 mph - N/A   Clear
1:35 AM 30.2 °F 18.9 °F 17.6 °F 60% 29.86 in 10.0 mi WNW 16.1 mph - N/A   Clear
1:55 AM 32.0 °F 21.6 °F 17.6 °F 55% 29.85 in 10.0 mi NW 15.0 mph - N/A   Clear
2:15 AM 32.0 °F 21.6 °F 17.6 °F 55% 29.85 in 10.0 mi WNW 15.0 mph - N/A   Clear
2:35 AM 33.8 °F 25.8 °F 17.6 °F 52% 29.85 in 10.0 mi WNW 10.4 mph - N/A   Clear
2:55 AM 33.8 °F 23.9 °F 17.6 °F 52% 29.85 in 10.0 mi NW 15.0 mph - N/A   Clear
3:15 AM 35.6 °F 26.2 °F 17.6 °F 48% 29.84 in 10.0 mi NW 15.0 mph - N/A   Clear
3:35 AM 35.6 °F 27.5 °F 17.6 °F 48% 29.84 in 10.0 mi NW 11.5 mph - N/A   Clear
3:55 AM 35.6 °F 29.2 °F 17.6 °F 48% 29.82 in 10.0 mi NW 8.1 mph - N/A   Clear
4:15 AM 35.6 °F 28.6 °F 17.6 °F 48% 29.82 in 10.0 mi NW 9.2 mph - N/A   Clear
4:35 AM 37.4 °F 28.9 °F 17.6 °F 45% 29.82 in 10.0 mi NW 13.8 mph - N/A   Clear
4:55 AM 35.6 °F 29.9 °F 17.6 °F 48% 29.83 in 10.0 mi West 6.9 mph - N/A   Clear
5:15 AM 30.2 °F - 15.8 °F 55% 29.82 in 10.0 mi Calm Calm - N/A   Clear
5:35 AM 30.2 °F - 15.8 °F 55% 29.83 in 10.0 mi Calm Calm - N/A   Clear
5:55 AM 26.6 °F 18.2 °F 14.0 °F 59% 29.83 in 10.0 mi ENE 8.1 mph - N/A   Clear
6:15 AM 30.2 °F - 14.0 °F 51% 29.83 in 10.0 mi Calm Calm - N/A   Clear
6:25 AM 28.4 °F - 14.0 °F 55% 29.83 in 10.0 mi Calm Calm - N/A   Clear
2:35 PM 50.0 °F - 26.6 °F 40% 29.85 in 10.0 mi West 20.7 mph 28.8 mph N/A   Clear
2:55 PM 50.0 °F - 26.6 °F 40% 29.86 in 10.0 mi WSW 15.0 mph 18.4 mph N/A   Clear
3:15 PM 50.0 °F - 26.6 °F 40% 29.87 in 10.0 mi West 17.3 mph 23.0 mph N/A   Clear
3:35 PM 50.0 °F - 26.6 °F 40% 29.87 in 10.0 mi West 18.4 mph 25.3 mph N/A   Clear
3:55 PM 50.0 °F - 26.6 °F 40% 29.87 in 10.0 mi West 18.4 mph 28.8 mph N/A   Clear
4:15 PM 50.0 °F - 26.6 °F 40% 29.87 in 10.0 mi West 17.3 mph 25.3 mph N/A   Clear
4:35 PM 50.0 °F - 26.6 °F 40% 29.88 in 10.0 mi West 20.7 mph 26.5 mph N/A   Clear
4:55 PM 50.0 °F - 24.8 °F 37% 29.89 in 10.0 mi West 18.4 mph 27.6 mph N/A   Clear
5:15 PM 46.4 °F 39.8 °F 26.6 °F 46% 29.89 in 10.0 mi West 16.1 mph 24.2 mph N/A   Clear
5:35 PM 46.4 °F 39.2 °F 26.6 °F 46% 29.90 in 10.0 mi West 18.4 mph 29.9 mph N/A   Clear
5:55 PM 46.4 °F 39.0 °F 26.6 °F 46% 29.90 in 10.0 mi West 19.6 mph 26.5 mph N/A   Clear
6:15 PM 44.6 °F 37.4 °F 26.6 °F 49% 29.91 in 10.0 mi WNW 16.1 mph 26.5 mph N/A   Clear
6:35 PM 44.6 °F 36.9 °F 28.4 °F 53% 29.91 in 10.0 mi WNW 18.4 mph - N/A   Clear
6:55 PM 44.6 °F 38.8 °F 28.4 °F 53% 29.93 in 10.0 mi West 11.5 mph 20.7 mph N/A   Clear
7:15 PM 44.6 °F 38.4 °F 28.4 °F 53% 29.93 in 10.0 mi WNW 12.7 mph - N/A   Clear
7:35 PM 42.8 °F 35.8 °F 28.4 °F 57% 29.93 in 10.0 mi WNW 13.8 mph - N/A   Clear
7:55 PM 44.6 °F 38.1 °F 26.6 °F 49% 29.93 in 10.0 mi WNW 13.8 mph - N/A   Clear
8:15 PM 44.6 °F 37.8 °F 26.6 °F 49% 29.94 in 10.0 mi WNW 15.0 mph 25.3 mph N/A   Clear
8:35 PM 44.6 °F 37.2 °F 26.6 °F 49% 29.94 in 10.0 mi WNW 17.3 mph 21.9 mph N/A   Clear
8:55 PM 44.6 °F 37.4 °F 26.6 °F 49% 29.95 in 10.0 mi WNW 16.1 mph 21.9 mph N/A   Clear
9:15 PM 46.4 °F 39.8 °F 26.6 °F 46% 29.94 in 10.0 mi NW 16.1 mph 21.9 mph N/A   Clear
9:35 PM 44.6 °F 38.1 °F 26.6 °F 49% 29.94 in 10.0 mi WNW 13.8 mph - N/A   Clear
9:55 PM 44.6 °F 37.4 °F 26.6 °F 49% 29.93 in 10.0 mi WNW 16.1 mph 20.7 mph N/A   Clear
10:15 PM 42.8 °F 35.4 °F 28.4 °F 57% 29.93 in 10.0 mi WNW 15.0 mph - N/A   Clear
10:35 PM 42.8 °F 35.8 °F 28.4 °F 57% 29.93 in 10.0 mi WNW 13.8 mph - N/A   Clear
10:55 PM 42.8 °F 35.8 °F 28.4 °F 57% 29.93 in 10.0 mi NW 13.8 mph - N/A   Clear
11:15 PM 44.6 °F 39.2 °F 28.4 °F 53% 29.93 in 10.0 mi NW 10.4 mph - N/A   Clear
11:35 PM 46.4 °F 40.7 °F 26.6 °F 46% 29.93 in 10.0 mi NNW 12.7 mph - N/A   Clear
11:55 PM 46.4 °F 40.4 °F 26.6 °F 46% 29.93 in 10.0 mi NW 13.8 mph 20.7 mph N/A   Clear